Wind_Speed
19 18 17 16 16 17 17 17 17 17 17 18 19 20 20 20 20 21 22 22 22 22 22 22 23 23 24 25 25 26 26 28 28 28 28 28 28 29 30 31 33 33 33
17 16 15 15 15 16 16 15 16 16 16 17 19 19 19 19 20 20 20 21 21 22 22 21 21 22 22 23 24 25 25 27 28 27 27 28 28 28 29 30 31 32 32
16 15 14 13 14 14 14 15 15 15 16 17 18 18 18 18 19 19 20 20 21 21 21 21 21 21 22 23 23 23 23 25 26 26 26 26 27 27 28 30 30 31 32
16 16 14 13 13 14 14 14 14 15 15 16 17 17 16 17 18 18 19 20 20 21 20 21 21 21 22 22 22 23 23 24 25 25 24 24 24 25 27 28 28 28 30
16 16 15 13 14 14 13 14 15 15 15 16 17 16 17 17 18 19 19 20 21 21 21 21 21 21 21 21 22 22 23 24 25 25 24 25 24 24 25 26 27 27 28
16 15 13 12 13 13 13 13 15 15 17 18 18 17 18 18 18 19 19 20 21 21 20 20 21 20 21 21 22 22 23 24 24 24 23 24 24 24 25 26 26 26 27
16 13 12 13 13 14 13 14 15 16 17 18 18 18 18 18 18 19 20 21 22 22 21 21 21 20 21 22 22 23 24 24 25 24 24 24 24 24 24 24 25 26 26
14 13 12 13 13 13 14 14 16 17 17 17 18 18 19 19 19 20 21 22 22 22 22 21 21 21 22 23 23 23 25 25 24 24 23 22 23 23 24 24 25 26 26
14 13 13 13 13 14 15 16 16 17 17 17 18 18 19 20 21 22 22 22 22 22 22 22 23 23 23 24 24 24 25 24 24 23 22 23 23 24 24 24 24 25 25
13 13 13 13 13 14 15 16 16 16 17 18 18 19 20 21 21 22 23 22 22 23 23 23 23 24 24 24 25 25 25 24 23 23 23 23 23 23 23 23 24 24 24
13 13 14 13 14 15 15 16 17 17 18 18 19 20 21 22 22 23 23 23 23 24 24 24 23 24 25 25 25 25 24 23 23 22 22 22 22 21 21 21 23 23 24
13 13 14 14 14 15 16 17 18 18 18 19 19 20 21 22 23 23 23 23 24 25 24 24 24 24 25 25 25 25 24 24 23 22 21 21 21 20 20 19 20 21 22
13 13 14 14 15 16 16 17 18 18 19 19 19 20 20 22 23 23 24 24 24 25 25 25 25 25 26 26 25 25 24 24 23 22 21 21 21 20 20 20 20 21 22
14 14 14 14 15 16 17 17 18 18 18 18 19 20 21 22 23 23 23 24 25 25 26 25 25 25 25 25 25 25 24 24 23 22 22 21 21 21 21 21 21 21 22
14 15 14 14 14 15 16 16 17 17 17 18 19 20 22 23 23 24 25 26 26 26 26 26 25 25 24 25 25 25 24 24 23 22 21 20 20 21 20 21 21 21 21
14 14 14 13 14 14 15 15 16 17 17 19 20 21 22 23 24 24 25 27 27 27 26 26 25 25 25 25 25 25 25 25 24 23 22 21 21 20 20 20 20 20 20
14 14 14 14 15 14 15 15 15 16 18 19 20 21 22 23 24 25 26 27 28 27 26 25 25 25 25 25 26 26 26 26 25 23 22 21 20 20 20 20 19 19 20
14 14 14 14 14 14 14 15 16 17 18 19 20 21 22 23 24 25 26 27 27 27 26 26 25 26 26 26 26 27 27 26 25 24 23 21 21 20 20 20 20 19 19
14 14 14 13 14 14 14 15 16 17 18 19 20 21 22 23 24 25 27 27 27 27 27 26 26 26 26 27 27 27 28 27 26 25 23 22 21 21 21 21 20 19 19
13 13 13 13 14 14 15 15 16 17 18 20 20 21 22 23 24 26 26 27 28 28 28 27 26 27 27 27 28 28 28 28 27 26 24 23 22 22 21 20 19 19 18
13 12 12 13 14 15 15 15 16 17 18 19 20 21 22 23 24 25 26 27 28 28 28 28 27 27 28 28 29 29 28 28 28 27 25 24 23 22 21 20 19 19 19
12 13 13 13 14 14 15 15 16 16 17 18 19 20 22 23 24 25 26 27 28 30 30 30 28 28 28 29 29 30 29 28 28 27 26 25 24 22 21 20 19 19 18
13 12 12 13 13 14 14 15 16 16 17 17 19 20 21 23 24 25 25 27 29 31 31 31 30 29 29 29 30 30 30 29 28 28 27 26 24 23 21 20 18 17 17
13 12 12 12 13 13 14 15 16 16 16 18 20 21 22 23 24 24 25 28 29 31 31 30 30 30 30 30 31 31 30 29 28 27 27 26 25 23 22 20 18 17 16
13 13 12 13 12 13 14 15 16 16 16 18 19 21 22 23 24 25 26 28 29 30 31 31 31 30 31 31 31 31 29 29 28 27 26 25 24 23 21 19 18 16 15
14 14 13 13 13 14 14 15 16 16 16 17 19 21 22 23 24 26 27 28 29 30 30 31 31 31 32 32 31 30 29 29 28 27 26 24 23 22 20 19 17 16 15
Wind_Direction
317 314 314 313 311 312 311 308 304 304 306 306 307 310 310 310 309 308 307 307 308 306 303 300 299 300 299 297 294 292 289 287 285 285 283 281 279 275 273 272 270 267 266
324 321 320 318 318 316 316 314 310 310 312 311 310 312 313 315 315 315 312 310 309 307 304 302 302 304 304 302 299 295 293 291 290 287 285 281 279 276 275 274 272 268 266
331 331 328 324 323 324 323 321 320 317 317 316 317 317 316 318 319 319 318 314 313 312 309 305 304 305 305 303 302 298 297 296 294 291 287 284 281 279 277 276 274 271 268
336 337 334 333 331 330 330 329 326 326 326 326 325 323 321 321 323 323 322 322 319 317 314 310 309 308 306 306 304 301 300 299 295 292 289 285 283 280 277 276 274 271 268
336 339 337 334 335 333 332 331 332 334 331 330 330 329 326 325 325 324 324 326 324 320 316 314 312 311 311 310 308 306 304 302 299 295 292 288 286 283 278 276 275 274 270
336 339 342 341 339 336 336 335 335 334 332 332 331 330 330 331 329 329 329 329 326 323 321 318 315 313 312 313 312 310 309 307 304 299 295 291 288 287 284 279 277 275 273
339 339 341 341 340 340 339 338 338 337 337 338 338 337 338 337 335 334 333 332 329 327 325 322 319 318 316 315 313 313 312 309 306 304 299 295 291 291 289 285 281 278 276
340 340 341 345 344 342 340 340 338 337 338 337 340 341 340 340 338 337 335 334 333 332 330 328 325 325 323 321 319 316 315 312 309 306 302 299 295 292 291 288 284 280 278
336 339 342 343 343 341 340 340 339 339 339 340 341 342 341 341 340 340 339 338 336 335 334 332 328 325 324 322 319 318 317 314 311 308 304 301 299 296 294 290 288 283 279
337 338 340 341 342 341 343 343 343 342 341 341 341 341 341 341 341 340 339 338 337 336 334 332 328 326 326 325 322 320 319 316 313 310 306 303 301 298 295 292 290 287 283
337 339 341 341 341 341 341 342 343 342 340 339 338 340 340 340 340 340 340 339 338 337 336 334 333 330 328 328 326 324 321 318 316 313 310 307 303 301 299 297 295 291 286
338 338 339 340 341 341 339 340 342 342 340 340 340 341 342 343 343 343 343 342 341 340 340 339 338 335 333 331 330 328 325 322 320 317 313 312 309 305 304 304 302 298 293
336 336 337 337 337 338 338 340 342 341 341 342 343 344 345 345 344 344 344 344 344 344 342 341 340 338 336 335 335 333 330 327 324 321 318 315 312 309 306 305 304 301 299
331 333 332 333 335 338 339 341 341 342 343 343 344 346 346 346 346 346 347 346 346 346 345 342 341 341 342 342 340 338 335 332 329 327 323 319 316 313 310 311 311 308 305
329 331 329 329 333 337 340 342 343 345 346 345 345 347 348 348 348 348 348 347 347 347 346 345 343 343 344 344 343 341 338 336 334 331 327 323 321 320 317 315 315 313 310
327 331 332 332 334 338 342 342 344 345 345 345 345 346 347 348 348 349 349 348 347 346 346 346 345 344 345 345 345 344 343 340 337 335 331 328 325 325 322 320 319 317 314
324 328 330 332 334 337 340 342 344 345 345 346 346 346 347 347 347 349 349 348 348 346 346 346 345 345 345 345 345 345 344 343 340 337 333 330 328 327 327 325 323 322 320
321 325 328 331 332 335 337 340 341 342 344 346 345 346 347 347 348 350 349 348 348 349 347 346 345 345 345 345 345 345 345 343 341 338 335 332 329 327 327 326 326 325 324
316 321 325 330 331 332 334 338 339 341 344 345 345 347 348 348 349 350 351 350 350 350 350 348 347 346 346 345 345 344 345 344 342 339 335 332 329 327 326 325 325 325 325
310 316 321 326 328 329 332 335 337 340 342 344 346 347 347 347 348 349 351 352 352 352 352 349 347 346 346 346 345 345 345 345 344 342 338 334 330 328 326 325 325 325 324
306 310 315 321 324 327 330 332 334 336 339 342 344 347 347 347 348 350 351 352 352 352 351 350 349 348 347 346 346 346 346 346 345 344 341 338 335 331 327 325 324 325 325
303 307 310 316 320 324 327 330 332 335 337 340 343 345 346 348 349 349 349 350 351 351 351 350 350 349 348 347 346 347 347 346 345 345 344 341 339 336 332 328 325 324 324
300 303 307 312 316 321 325 328 330 332 335 338 341 342 343 345 347 347 349 348 348 349 350 350 350 349 348 347 346 345 346 345 344 343 343 342 340 338 336 334 331 328 326
295 297 301 306 311 317 322 326 328 330 332 334 338 340 342 344 346 346 347 347 347 349 349 349 348 347 347 346 345 344 344 344 343 343 343 343 342 341 340 338 336 333 331
290 292 297 302 307 311 317 322 327 328 329 332 336 339 340 341 343 344 346 346 347 348 348 348 347 346 346 346 346 346 346 345 344 344 344 345 344 344 343 341 339 337 335
285 287 290 295 300 306 310 315 320 323 326 330 333 335 337 339 341 342 344 345 346 347 348 348 348 348 347 347 346 346 346 346 345 345 345 345 345 346 346 344 342 341 339
Height
5747 5744 5742 5741 5739 5738 5737 5735 5734 5732 5731 5729 5727 5724 5722 5719 5717 5714 5711 5709 5707 5704 5701 5699 5697 5694 5692 5690 5688 5686 5684 5683 5681 5680 5678 5677 5677 5676 5675 5675 5675 5676 5677
5745 5741 5740 5738 5737 5735 5733 5731 5730 5728 5727 5725 5722 5719 5716 5714 5711 5709 5706 5703 5701 5698 5695 5693 5690 5688 5685 5683 5680 5678 5677 5675 5673 5671 5670 5668 5667 5666 5666 5665 5665 5666 5666
5742 5740 5738 5736 5735 5733 5731 5729 5727 5725 5723 5721 5718 5715 5712 5710 5707 5704 5701 5698 5695 5692 5689 5687 5684 5681 5679 5676 5674 5672 5669 5667 5665 5663 5661 5660 5658 5657 5657 5656 5656 5656 5656
5741 5739 5737 5735 5733 5731 5729 5727 5725 5722 5720 5718 5715 5712 5709 5706 5703 5700 5697 5694 5691 5687 5684 5681 5678 5676 5673 5670 5668 5665 5662 5659 5657 5655 5653 5651 5650 5649 5648 5647 5647 5647 5646
5741 5739 5736 5733 5732 5730 5728 5726 5723 5720 5718 5715 5712 5709 5706 5703 5700 5697 5693 5690 5687 5683 5679 5676 5673 5670 5667 5665 5662 5659 5656 5653 5650 5647 5645 5643 5642 5640 5639 5639 5638 5638 5637
5740 5738 5734 5732 5731 5729 5727 5724 5722 5719 5716 5713 5709 5706 5703 5700 5697 5693 5690 5687 5683 5679 5675 5672 5669 5666 5663 5660 5656 5653 5650 5646 5643 5640 5638 5636 5634 5632 5631 5630 5629 5629 5629
5739 5736 5734 5732 5730 5728 5726 5723 5720 5717 5714 5711 5707 5704 5700 5697 5694 5690 5687 5683 5679 5675 5671 5668 5664 5661 5658 5654 5651 5648 5644 5640 5636 5633 5631 5628 5626 5625 5623 5622 5620 5620 5620
5738 5736 5734 5731 5729 5727 5725 5722 5719 5716 5713 5709 5706 5702 5698 5694 5691 5687 5684 5680 5676 5672 5668 5664 5660 5656 5653 5649 5646 5642 5638 5634 5630 5627 5624 5621 5619 5617 5615 5613 5612 5611 5611
5738 5735 5733 5731 5729 5726 5724 5721 5717 5714 5711 5707 5704 5700 5696 5692 5689 5685 5681 5676 5672 5668 5664 5660 5656 5652 5648 5644 5640 5636 5632 5627 5623 5619 5617 5614 5611 5609 5607 5605 5604 5603 5602
5737 5734 5732 5730 5727 5725 5722 5719 5716 5712 5709 5705 5702 5698 5694 5690 5686 5682 5677 5673 5669 5664 5660 5655 5651 5647 5642 5638 5634 5630 5626 5621 5617 5613 5610 5607 5604 5601 5599 5597 5595 5594 5593
5736 5733 5731 5728 5726 5723 5720 5717 5713 5710 5707 5703 5699 5695 5691 5687 5682 5678 5674 5669 5665 5660 5656 5651 5646 5641 5637 5633 5628 5624 5619 5615 5611 5607 5603 5600 5597 5594 5591 5589 5587 5585 5584
5734 5732 5729 5727 5724 5721 5718 5715 5711 5708 5704 5701 5697 5693 5688 5684 5680 5675 5670 5666 5661 5656 5651 5647 5642 5637 5632 5627 5623 5618 5613 5609 5605 5601 5597 5594 5591 5588 5585 5582 5580 5578 5576
5733 5731 5728 5725 5722 5719 5716 5713 5709 5706 5702 5698 5694 5691 5686 5682 5677 5673 5668 5663 5658 5653 5648 5643 5638 5633 5628 5623 5618 5613 5608 5604 5599 5596 5592 5588 5585 5582 5579 5576 5573 5571 5569
5731 5729 5726 5723 5720 5717 5714 5711 5707 5704 5700 5696 5692 5688 5684 5680 5675 5671 5666 5661 5656 5650 5645 5640 5635 5629 5624 5619 5614 5609 5604 5599 5595 5591 5587 5583 5579 5576 5573 5571 5568 5565 5562
5729 5726 5724 5721 5718 5715 5712 5709 5705 5702 5698 5694 5690 5686 5682 5678 5673 5668 5663 5658 5653 5647 5642 5637 5632 5627 5622 5617 5611 5606 5601 5596 5591 5586 5582 5578 5575 5572 5568 5565 5562 5559 5556
5727 5724 5722 5719 5716 5714 5711 5707 5704 5700 5696 5693 5689 5684 5680 5676 5671 5666 5661 5656 5650 5645 5639 5634 5629 5624 5619 5614 5609 5603 5598 5592 5587 5583 5578 5574 5571 5567 5564 5560 5557 5554 5551
5724 5722 5719 5717 5714 5711 5709 5706 5703 5699 5695 5691 5687 5683 5678 5674 5669 5664 5659 5653 5648 5642 5637 5632 5627 5622 5617 5611 5606 5600 5595 5589 5584 5579 5574 5570 5566 5563 5559 5556 5553 5549 5546
5722 5720 5717 5715 5712 5709 5706 5703 5700 5697 5694 5690 5686 5681 5677 5672 5667 5662 5657 5652 5646 5640 5635 5629 5624 5619 5614 5609 5603 5598 5592 5586 5581 5576 5571 5566 5562 5559 5555 5552 5548 5545 5542
5719 5717 5715 5712 5710 5707 5704 5701 5698 5695 5692 5688 5684 5680 5676 5671 5666 5661 5655 5650 5644 5638 5633 5628 5622 5617 5612 5606 5601 5595 5589 5583 5578 5573 5567 5563 5559 5555 5551 5548 5544 5540 5537
5716 5714 5712 5710 5708 5705 5703 5700 5697 5694 5690 5687 5683 5679 5674 5670 5665 5659 5654 5648 5643 5637 5631 5625 5620 5615 5609 5604 5598 5592 5586 5580 5575 5569 5564 5559 5555 5551 5547 5543 5540 5536 5533
5713 5711 5710 5708 5705 5703 5700 5698 5695 5692 5688 5685 5681 5677 5672 5668 5663 5658 5653 5647 5641 5635 5629 5623 5618 5612 5606 5601 5595 5589 5583 5577 5571 5566 5560 5555 5551 5546 5543 5539 5535 5532 5529
5710 5708 5706 5705 5703 5701 5698 5695 5693 5690 5687 5683 5679 5676 5671 5666 5661 5656 5651 5645 5639 5633 5627 5621 5615 5610 5604 5598 5592 5586 5580 5574 5568 5563 5557 5552 5547 5543 5539 5535 5531 5528 5525
5706 5705 5703 5702 5700 5698 5695 5693 5690 5688 5685 5681 5678 5674 5669 5665 5660 5654 5649 5643 5638 5632 5625 5619 5613 5607 5601 5595 5589 5583 5577 5571 5566 5560 5554 5549 5543 5539 5535 5531 5528 5525 5522
5702 5701 5700 5698 5697 5695 5693 5690 5688 5685 5682 5679 5675 5672 5667 5663 5658 5653 5647 5642 5636 5630 5623 5617 5611 5605 5599 5592 5586 5580 5574 5568 5562 5556 5551 5545 5540 5536 5532 5528 5525 5521 5519
5698 5697 5696 5695 5693 5692 5690 5687 5685 5683 5680 5677 5673 5669 5665 5661 5656 5651 5646 5640 5634 5628 5621 5615 5609 5602 5596 5590 5583 5577 5570 5565 5559 5553 5548 5542 5537 5533 5529 5525 5522 5519 5516
5694 5693 5692 5691 5690 5688 5687 5685 5682 5680 5677 5674 5670 5667 5663 5658 5653 5649 5643 5638 5632 5626 5619 5613 5606 5599 5593 5586 5580 5574 5567 5561 5556 5550 5545 5540 5535 5531 5526 5523 5519 5516 5513